• în Republica Moldova
  • Lista ţărilor
  • Pe 7 zile
  • Temperatura apei
  • Hartă satelitară
  • Meteo pe hartă
  • Widget-uri
  • user-avatar
    Intrare

    Meteo pe oră la Tibissa

    Astăzi, 18 Noiembrie, Sâmbătă

    Timp Temperatura Precipitaţii Vânt Presiune Umiditate
    00:00 +7°C° 0 mm 2 m/s 685 mmHg 85%
    01:00 +7°C° 0 mm 2 m/s 685 mmHg 89%
    02:00 +6°C° 0 mm 2 m/s 685 mmHg 89%
    03:00 +6°C° 0 mm 2 m/s 685 mmHg 89%
    04:00 +6°C° 0 mm 2 m/s 684 mmHg 88%
    05:00 +6°C° 0 mm 2 m/s 684 mmHg 86%
    06:00 +6°C° 0 mm 2 m/s 684 mmHg 84%
    07:00 +6°C° 0 mm 2 m/s 684 mmHg 81%
    08:00 +7°C° 0 mm 3 m/s 685 mmHg 71%
    09:00 +9°C° 0 mm 3 m/s 685 mmHg 61%
    10:00 +10°C° 0 mm 3 m/s 686 mmHg 50%
    11:00 +11°C° 0 mm 4 m/s 686 mmHg 49%
    12:00 +12°C° 0 mm 5 m/s 686 mmHg 48%
    13:00 +13°C° 0 mm 5 m/s 686 mmHg 47%
    14:00 +13°C° 0 mm 5 m/s 686 mmHg 50%
    15:00 +12°C° 0 mm 5 m/s 685 mmHg 52%
    16:00 +12°C° 0 mm 5 m/s 685 mmHg 54%
    17:00 +10°C° 0 mm 5 m/s 685 mmHg 61%
    18:00 +10°C° 0 mm 4 m/s 685 mmHg 68%
    19:00 +8°C° 0 mm 4 m/s 685 mmHg 75%
    20:00 +9°C° 0 mm 3 m/s 685 mmHg 78%
    21:00 +9°C° 0 mm 3 m/s 686 mmHg 82%
    22:00 +8°C° 0 mm 3 m/s 686 mmHg 85%
    23:00 +8°C° 0 mm 3 m/s 686 mmHg 87%

    Mâine, 19 Noiembrie, Duminică

    Timp Temperatura Precipitaţii Vânt Presiune Umiditate
    00:00 +8°C° 0 mm 3 m/s 686 mmHg 89%
    01:00 +7°C° 0 mm 3 m/s 686 mmHg 90%
    02:00 +7°C° 0 mm 3 m/s 686 mmHg 90%
    03:00 +7°C° 0 mm 3 m/s 685 mmHg 90%
    04:00 +5°C° 0 mm 3 m/s 685 mmHg 90%
    05:00 +5°C° 0 mm 3 m/s 685 mmHg 89%
    06:00 +5°C° 0 mm 3 m/s 685 mmHg 89%
    07:00 +5°C° 0 mm 3 m/s 685 mmHg 88%
    08:00 +6°C° 0 mm 4 m/s 686 mmHg 81%
    09:00 +8°C° 0 mm 5 m/s 687 mmHg 74%
    10:00 +9°C° 0 mm 6 m/s 687 mmHg 67%
    11:00 +10°C° 0 mm 6 m/s 687 mmHg 63%
    12:00 +10°C° 0 mm 6 m/s 687 mmHg 59%
    13:00 +11°C° 0 mm 6 m/s 687 mmHg 55%
    14:00 +11°C° 0 mm 6 m/s 687 mmHg 56%
    15:00 +11°C° 0 mm 6 m/s 687 mmHg 56%
    16:00 +11°C° 0 mm 6 m/s 687 mmHg 56%
    17:00 +10°C° 0 mm 5 m/s 687 mmHg 61%
    18:00 +10°C° 0 mm 4 m/s 687 mmHg 66%
    19:00 +9°C° 0 mm 3 m/s 687 mmHg 71%
    20:00 +8°C° 0 mm 3 m/s 687 mmHg 74%
    21:00 +8°C° 0 mm 2 m/s 687 mmHg 77%
    22:00 +7°C° 0 mm 2 m/s 688 mmHg 80%
    23:00 +7°C° 0 mm 2 m/s 688 mmHg 80%

    Poimâine, 20 Noiembrie, Luni

    Timp Temperatura Precipitaţii Vânt Presiune Umiditate
    00:00 +7°C° 0 mm 2 m/s 688 mmHg 81%
    01:00 +7°C° 0 mm 2 m/s 688 mmHg 82%
    02:00 +6°C° 0 mm 2 m/s 688 mmHg 81%
    03:00 +6°C° 0 mm 2 m/s 687 mmHg 80%
    04:00 +6°C° 0 mm 2 m/s 687 mmHg 79%
    05:00 +6°C° 0 mm 2 m/s 687 mmHg 76%
    06:00 +6°C° 0 mm 2 m/s 687 mmHg 73%
    07:00 +5°C° 0 mm 2 m/s 688 mmHg 69%
    08:00 +7°C° 0 mm 2 m/s 688 mmHg 60%
    09:00 +9°C° 0 mm 2 m/s 689 mmHg 51%
    10:00 +12°C° 0 mm 2 m/s 690 mmHg 42%
    11:00 +13°C° 0 mm 2 m/s 690 mmHg 39%
    12:00 +14°C° 0 mm 2 m/s 690 mmHg 37%
    13:00 +15°C° 0 mm 2 m/s 690 mmHg 35%
    14:00 +15°C° 0 mm 2 m/s 689 mmHg 35%
    15:00 +15°C° 0 mm 2 m/s 689 mmHg 36%
    16:00 +15°C° 0 mm 2 m/s 689 mmHg 37%
    17:00 +14°C° 0 mm 2 m/s 689 mmHg 44%
    18:00 +12°C° 0 mm 1 m/s 689 mmHg 51%
    19:00 +11°C° 0 mm 1 m/s 689 mmHg 59%
    20:00 +10°C° 0 mm 0 m/s 689 mmHg 61%
    21:00 +9°C° 0 mm 0 m/s 689 mmHg 63%
    22:00 +9°C° 0 mm 0 m/s 689 mmHg 65%
    23:00 +8°C° 0 mm 0 m/s 689 mmHg 65%

    21 Noiembrie, Marţi

    Timp Temperatura Precipitaţii Vânt Presiune Umiditate
    00:00 +9°C° 0 mm 1 m/s 689 mmHg 64%
    01:00 +9°C° 0 mm 1 m/s 688 mmHg 63%
    02:00 +9°C° 0 mm 1 m/s 688 mmHg 62%
    03:00 +9°C° 0 mm 1 m/s 688 mmHg 60%
    04:00 +8°C° 0 mm 1 m/s 688 mmHg 58%
    05:00 +8°C° 0 mm 1 m/s 687 mmHg 57%
    06:00 +8°C° 0 mm 1 m/s 687 mmHg 55%
    07:00 +8°C° 0 mm 1 m/s 687 mmHg 54%
    08:00 +10°C° 0 mm 1 m/s 688 mmHg 47%
    09:00 +12°C° 0 mm 1 m/s 688 mmHg 40%
    10:00 +14°C° 0 mm 1 m/s 689 mmHg 33%
    11:00 +15°C° 0 mm 2 m/s 689 mmHg 30%
    12:00 +16°C° 0 mm 2 m/s 689 mmHg 27%
    13:00 +17°C° 0 mm 2 m/s 689 mmHg 23%
    14:00 +17°C° 0 mm 2 m/s 688 mmHg 23%
    15:00 +17°C° 0 mm 2 m/s 688 mmHg 23%
    16:00 +17°C° 0 mm 2 m/s 688 mmHg 23%
    17:00 +15°C° 0 mm 1 m/s 688 mmHg 28%
    18:00 +14°C° 0 mm 1 m/s 688 mmHg 33%
    19:00 +12°C° 0 mm 1 m/s 687 mmHg 38%
    20:00 +11°C° 0 mm 1 m/s 687 mmHg 40%
    21:00 +11°C° 0 mm 1 m/s 687 mmHg 41%
    22:00 +10°C° 0 mm 1 m/s 687 mmHg 43%
    23:00 +9°C° 0 mm 0 m/s 687 mmHg 44%

    22 Noiembrie, Miercuri

    Timp Temperatura Precipitaţii Vânt Presiune Umiditate
    00:00 +8°C° 0 mm 0 m/s 687 mmHg 45%
    01:00 +8°C° 0 mm 0 m/s 687 mmHg 46%
    02:00 +8°C° 0 mm 0 m/s 686 mmHg 46%
    03:00 +7°C° 0 mm 0 m/s 686 mmHg 46%
    04:00 +7°C° 0 mm 0 m/s 686 mmHg 46%
    05:00 +7°C° 0 mm 0 m/s 686 mmHg 46%
    06:00 +6°C° 0 mm 0 m/s 686 mmHg 45%
    07:00 +7°C° 0 mm 1 m/s 686 mmHg 45%
    08:00 +9°C° 0 mm 1 m/s 686 mmHg 39%
    09:00 +12°C° 0 mm 1 m/s 687 mmHg 34%
    10:00 +14°C° 0 mm 1 m/s 688 mmHg 28%
    11:00 +15°C° 0 mm 2 m/s 688 mmHg 27%
    12:00 +16°C° 0 mm 2 m/s 688 mmHg 26%
    13:00 +17°C° 0 mm 2 m/s 687 mmHg 25%
    14:00 +17°C° 0 mm 3 m/s 687 mmHg 27%
    15:00 +17°C° 0 mm 3 m/s 687 mmHg 28%
    16:00 +17°C° 0 mm 3 m/s 687 mmHg 29%
    17:00 +14°C° 0 mm 3 m/s 687 mmHg 36%
    18:00 +13°C° 0 mm 3 m/s 687 mmHg 42%
    19:00 +12°C° 0 mm 2 m/s 687 mmHg 49%
    20:00 +12°C° 0 mm 2 m/s 687 mmHg 53%
    21:00 +10°C° 0 mm 2 m/s 687 mmHg 58%
    22:00 +9°C° 0 mm 2 m/s 687 mmHg 63%
    23:00 +9°C° 0 mm 2 m/s 687 mmHg 66%

    23 Noiembrie, Joi

    Timp Temperatura Precipitaţii Vânt Presiune Umiditate
    00:00 +9°C° 0 mm 2 m/s 687 mmHg 69%
    01:00 +8°C° 0 mm 2 m/s 686 mmHg 73%
    02:00 +8°C° 0 mm 2 m/s 686 mmHg 74%
    03:00 +9°C° 0 mm 1 m/s 686 mmHg 76%
    04:00 +8°C° 0 mm 1 m/s 686 mmHg 78%
    05:00 +8°C° 0 mm 1 m/s 686 mmHg 78%
    06:00 +8°C° 0 mm 1 m/s 686 mmHg 79%
    07:00 +8°C° 0 mm 1 m/s 686 mmHg 79%
    08:00 +9°C° 0 mm 2 m/s 687 mmHg 71%
    09:00 +10°C° 0 mm 2 m/s 688 mmHg 62%
    10:00 +13°C° 0 mm 2 m/s 689 mmHg 53%
    11:00 +14°C° 0 mm 2 m/s 689 mmHg 48%
    12:00 +15°C° 0 mm 2 m/s 689 mmHg 43%
    13:00 +17°C° 0 mm 3 m/s 689 mmHg 37%
    14:00 +17°C° 0 mm 2 m/s 689 mmHg 38%
    15:00 +17°C° 0 mm 2 m/s 689 mmHg 38%
    16:00 +18°C° 0 mm 1 m/s 689 mmHg 38%
    17:00 +16°C° 0 mm 1 m/s 689 mmHg 43%
    18:00 +14°C° 0 mm 1 m/s 689 mmHg 48%
    19:00 +13°C° 0 mm 1 m/s 688 mmHg 53%
    20:00 +13°C° 0 mm 1 m/s 689 mmHg 55%
    21:00 +12°C° 0 mm 1 m/s 689 mmHg 57%
    22:00 +12°C° 0 mm 1 m/s 689 mmHg 60%
    23:00 +11°C° 0 mm 1 m/s 689 mmHg 61%
    Arată mai mult